| time (UTC) | temp F | wind direction | speed MPH | gust MPH | rain 1hr in | rain 24hr in | rain mn in | humidity % | barometer mb |
| 20260505074517 | 50 | 211 | 0.0 | 1.0 | 0.00 | 0.00 | 0.00 | 34 | 1013.9 |
| 20260505073014 | 50 | 211 | 0.0 | 0.0 | 0.00 | 0.00 | 0.00 | 42 | 1013.8 |
| 20260505071527 | 50 | 211 | 0.0 | 0.0 | 0.00 | 0.00 | 0.00 | 47 | 1013.6 |
| 20260505070008 | 51 | 211 | 0.0 | 0.0 | 0.00 | 0.00 | 0.00 | 51 | 1013.4 |
| 20260505064508 | 52 | 211 | 0.0 | 1.0 | 0.00 | 0.00 | 0.00 | 56 | 1013.3 |
| 20260505063007 | 52 | 212 | 0.0 | 1.0 | 0.00 | 0.00 | 0.00 | 58 | 1013.2 |
| 20260505061505 | 52 | 209 | 0.0 | 3.0 | 0.00 | 0.00 | 0.00 | 60 | 1013.1 |
| 20260505060011 | 53 | 205 | 0.0 | 4.0 | 0.00 | 0.00 | 0.00 | 61 | 1013.2 |
| 20260505054504 | 53 | 285 | 0.0 | 2.0 | 0.00 | 0.00 | 0.00 | 62 | 1013.2 |
| 20260505053003 | 53 | 223 | 0.0 | 3.0 | 0.00 | 0.00 | 0.00 | 63 | 1013.2 |
| 20260505051506 | 53 | 215 | 1.0 | 4.0 | 0.00 | 0.00 | 0.00 | 64 | 1013.1 |
| 20260505041604 | 56 | 183 | 1.0 | 4.0 | 0.00 | 0.00 | 0.00 | 67 | 1012.3 |
| 20260505040101 | 57 | 186 | 0.0 | 2.0 | 0.00 | 0.00 | 0.00 | 68 | 1012.1 |
| 20260505034559 | 58 | 245 | 0.0 | 2.0 | 0.00 | 0.00 | 0.00 | 69 | 1011.8 |
| 20260505034501 | 58 | 245 | 0.0 | 2.0 | 0.00 | 0.00 | 0.00 | 69 | 1011.8 |
| 20260505033100 | 59 | 280 | 1.0 | 2.0 | 0.00 | 0.00 | 0.00 | 69 | 1011.5 |
| 20260505031601 | 60 | 273 | 1.0 | 4.0 | 0.00 | 0.00 | 0.00 | 69 | 1011.3 |
| 20260505030058 | 61 | 286 | 1.0 | 4.0 | 0.00 | 0.00 | 0.00 | 69 | 1011.1 |
| 20260505024606 | 62 | 286 | 2.0 | 6.0 | 0.00 | 0.00 | 0.00 | 68 | 1010.8 |
| 20260505023104 | 64 | 273 | 0.0 | 4.0 | 0.00 | 0.00 | 0.00 | 67 | 1010.6 |
| 20260505021557 | 66 | 188 | 2.0 | 9.0 | 0.00 | 0.00 | 0.00 | 64 | 1010.6 |
| 20260505020058 | 68 | 185 | 1.0 | 6.0 | 0.00 | 0.00 | 0.00 | 63 | 1010.5 |
| 20260505014556 | 68 | 290 | 2.0 | 7.0 | 0.00 | 0.00 | 0.00 | 62 | 1010.5 |
| 20260505013116 | 70 | 221 | 1.0 | 7.0 | 0.00 | 0.00 | 0.00 | 61 | 1010.6 |
| 20260505011607 | 70 | 235 | 1.0 | 6.0 | 0.00 | 0.00 | 0.00 | 61 | 1010.7 |
| 20260505010110 | 70 | 193 | 1.0 | 8.0 | 0.00 | 0.00 | 0.00 | 61 | 1010.7 |
| 20260505004553 | 71 | 339 | 1.0 | 5.0 | 0.00 | 0.00 | 0.00 | 60 | 1010.8 |
| 20260505003101 | 71 | 196 | 2.0 | 7.0 | 0.00 | 0.00 | 0.00 | 60 | 1010.8 |
| 20260505001553 | 71 | 217 | 3.0 | 7.0 | 0.00 | 0.00 | 0.00 | 59 | 1010.8 |
| 20260505000100 | 71 | 193 | 2.0 | 6.0 | 0.00 | 0.00 | 0.00 | 58 | 1010.9 |
| 20260504234550 | 70 | 194 | 2.0 | 6.0 | 0.00 | 0.00 | 0.00 | 60 | 1010.9 |
| 20260504233055 | 71 | 184 | 2.0 | 7.0 | 0.00 | 0.00 | 0.00 | 59 | 1011.1 |
| 20260504231547 | 70 | 278 | 2.0 | 8.0 | 0.00 | 0.00 | 0.00 | 61 | 1011.2 |
| 20260504230051 | 70 | 184 | 2.0 | 6.0 | 0.00 | 0.00 | 0.00 | 59 | 1011.3 |
| 20260504224546 | 70 | 219 | 2.0 | 7.0 | 0.00 | 0.00 | 0.00 | 60 | 1011.4 |
| 20260504223054 | 69 | 238 | 2.0 | 5.0 | 0.00 | 0.00 | 0.00 | 60 | 1011.7 |
| 20260504221542 | 68 | 215 | 1.0 | 6.0 | 0.00 | 0.00 | 0.00 | 61 | 1011.8 |
| 20260504220046 | 68 | 219 | 2.0 | 8.0 | 0.00 | 0.00 | 0.00 | 60 | 1012.1 |
| 20260504214547 | 68 | 187 | 1.0 | 5.0 | 0.00 | 0.00 | 0.00 | 60 | 1012.1 |
| 20260504213042 | 67 | 238 | 1.0 | 7.0 | 0.00 | 0.00 | 0.00 | 60 | 1012.3 |
| 20260504211538 | 67 | 83 | 1.0 | 8.0 | 0.00 | 0.00 | 0.00 | 61 | 1012.5 |
| 20260504210034 | 66 | 178 | 2.0 | 8.0 | 0.00 | 0.00 | 0.00 | 62 | 1012.6 |
| 20260504204532 | 65 | 180 | 1.0 | 5.0 | 0.00 | 0.00 | 0.00 | 62 | 1012.8 |
| 20260504203034 | 63 | 146 | 2.0 | 7.0 | 0.00 | 0.00 | 0.00 | 63 | 1012.9 |
| 20260504201528 | 63 | 187 | 1.0 | 5.0 | 0.00 | 0.00 | 0.00 | 64 | 1013.0 |
| 20260504200027 | 63 | 15 | 1.0 | 6.0 | 0.00 | 0.00 | 0.00 | 63 | 1013.1 |
| 20260504194525 | 62 | 188 | 3.0 | 9.0 | 0.00 | 0.00 | 0.00 | 62 | 1013.1 |
| 20260504193026 | 61 | 223 | 3.0 | 8.0 | 0.00 | 0.00 | 0.00 | 62 | 1013.2 |
| 20260504191525 | 60 | 180 | 1.0 | 7.0 | 0.00 | 0.00 | 0.00 | 63 | 1013.3 |
| 20260504190020 | 59 | 289 | 2.0 | 6.0 | 0.00 | 0.00 | 0.00 | 63 | 1013.5 |
| 20260504184520 | 58 | 199 | 1.0 | 8.0 | 0.00 | 0.00 | 0.00 | 62 | 1013.6 |
| 20260504183020 | 57 | 231 | 2.0 | 8.0 | 0.00 | 0.00 | 0.00 | 62 | 1013.5 |
| 20260504181526 | 57 | 275 | 2.0 | 9.0 | 0.00 | 0.00 | 0.00 | 62 | 1013.5 |
| 20260504180019 | 56 | 194 | 2.0 | 10.0 | 0.00 | 0.00 | 0.00 | 62 | 1013.5 |
| 20260504174518 | 56 | 169 | 1.0 | 7.0 | 0.00 | 0.00 | 0.00 | 61 | 1013.4 |
| 20260504173017 | 56 | 297 | 3.0 | 7.0 | 0.00 | 0.00 | 0.00 | 61 | 1013.4 |
| 20260504171516 | 56 | 267 | 1.0 | 8.0 | 0.00 | 0.00 | 0.00 | 60 | 1013.4 |
| 20260504081503 | 57 | 191 | 0.0 | 2.0 | 0.00 | 0.00 | 0.00 | 71 | 1009.4 |